Weather in Goloby

Ukraine / Volyn Oblast     51°04′57″N   25°00′39″E
temp.,
°C
wind,
m/s
gust,
m/s
humid.,
%
clouds,
%
prec.,
mm/h
press.,
hPa
HPBL,
m
24 may, tue
tue2400:00+10e33695 0.0 101345
03:00+8sse33741 0.0 101331
06:00+7se33741 0.0 101428
09:00+13se34575 0.0 1014348
12:00+17ese45467 0.0 10131325
15:00+19se55425 0.0 10131600
18:00+18se3553100 0.0 10131551
21:00+14se3567100 0.0 101478
25 may, wed
wed2500:00+12se4106377 0.0 1015179
03:00+11se41267100 0.0 1015229
06:00+12sse41063100 0.0 1015240
09:00+12se51270100 0.0 1015293
12:00+17sse6865100 0.0 1015678
15:00+16se3583100 0.7 1014162
18:00+16se3586100 0.2 101399
21:00+15wsw2290100 0.6 101323
26 may, thu
thu2600:00+14wnw61096100 0.1 1014504
03:00+11wnw6129694 0.1 1015428
06:00+10w3109817 0.0 1016259
09:00+15wnw69785 0.0 1016674
12:00+19wnw79495 0.0 10162057
15:00+20w71047100 0.0 10162712
18:00+18w81162100 0.1 10151510
21:00+15w6137121 0.2 1015501
27 may, fri
fri2700:00+13wsw5138135 0.0 1016347
03:00+14w6127439 0.0 1016695
06:00+10wsw410945 0.0 1017231
09:00+15w610705 0.0 1016823
12:00+19wsw81157100 0.0 10131741
15:00+20wsw9156674 0.5 10101780
18:00+14nw91489100 1.8 1010768
21:00+10w61291100 3.5 1012609
28 may, sat
sat2800:00+9w6139146 0.1 1012511
03:00+8w715940 0.1 1011529
06:00+7w614910 0.0 1011567
09:00+11w914704 0.0 10111319
12:00+14w913485 0.0 10112061
15:00+13w9135937 0.1 10111870
18:00+14w812575 0.2 10122109
21:00+10w47720 0.4 1012137